Location: Dillon
(41.1766°N, 107.0923°W)
Time: 04:20:46
(UTC+00:00)

SO-50 - Pass Details

Date: 07 July 2022
Orbit: 584 x 698 km, 64.6° (Epoch: 18 August)

Event Time Altitude Azimuth Distance (km) Brightness Sun altitude
Exits shadow 07:33:41 - 273° (W) 2,580 ? -26.1°
Reaches altitude 10° 07:35:41 10° 291° (WNW) 2,093 ? -26.0°
Maximum altitude 07:38:15 14° 324° (NW) 1,837 ? -26.0°
Drops below altitude 10° 07:40:52 10° 356° (N) 2,131 ? -25.9°
Sets 07:44:20 0° 21° (NNE) 3,068 ? -25.8°
